Tracking 20724 objects as of 2-Jun-2020
HD Live streaming from Space Station
objects crossing your sky now

ONEWEB-0061

Track ONEWEB-0061 now!
10-day predictions
ONEWEB-0061 is classified as:


NORAD ID: 45428
Int'l Code: 2020-020E
Perigee: 584.3 km
Apogee: 625.8 km
Inclination: 87.6 °
Period: 96.6 minutes
Semi major axis: 6976 km
RCS: Unknown
Launch date: March 21, 2020
Source: United Kingdom (UK)
Launch site: TYURATAM MISSILE AND SPACE COMPLEX (TTMTR)
aabbcc
Your satellite tracking list
Your tracking list is empty




NASA's NSSDC Master Catalog

Two Line Element Set (TLE):
1 45428U 20020E   20153.91667824  .00012060  00000-0  12371-2 0  9996
2 45428  87.6182 115.1475 0029767  36.0366 320.0029 14.90007477 10934
Source of the keplerian elements: AFSPC